Flood From: 18-02-2018 16:00 Until: 19-02-2018 16:00 warning for: Flood Level: Yellow info button

Although rather usual in this region, locally or potentially dangerous phenomena are expected. (such as local winds, summer thunderstorms, rising streams or high waves) Be aware and pay attention to the latest weather updates, especially if you carry out activities exposed to weather or close to a stream or shoreline. 


Meteo18 Weather Cam more information Meteo18 Weather Cam


Thunder radar more information blitzortung!


Rain radar more information rain snow radar


Visit our other weather sites:

Template documentation
and downloads

And another site



Weather Underground History page Text

Daily Summary for May 31, 2016 Units:  Metric    English   Both
« Previous Day
Next Day »
Daily Weekly Monthly Yearly Custom
  High: Low: Average:
Temperature: -17.8 °C -11.2 °C -10.9 °C
Dew Point: -17.8 °C -11.6 °C -11.3 °C
Humidity: Humidity % 93 % 95 %
Wind Speed: 0 km/h 0 km/h 0.8 km/h
Wind Gust: 0 km/h - -
Wind:- - SSW
Pressure: 0 hPa 34154.6 hPa -
Precipitation: 792.48 mm    
Historical Graphs
 
 
Tabular Data for May 31, 2016
Time Temperature Dew Point Pressure Wind Wind Speed Wind Gust Humidity Rainfall Rate (Hourly)
-17.8 °C -17.8 °C 0 hPa Calm     Humidity % 0 mm
00:02 -10.9 °C -11.3 °C 34212.1 hPa SW 2.6 km/h 7.7 km/h 96 % 12.7 mm
00:12 -10.9 °C -11.3 °C 34212.1 hPa Calm   7.7 km/h 96 % 7.62 mm
00:17 -10.9 °C -11.3 °C 34212.1 hPa Calm   7.7 km/h 96 % 7.62 mm
00:22 -10.9 °C -11.3 °C 34212.1 hPa Calm   7.7 km/h 96 % 7.62 mm
00:32 -10.9 °C -11.3 °C 34212.1 hPa Calm   7.7 km/h 96 % 7.62 mm
00:42 -11 °C -11.3 °C 34212.1 hPa Calm   10.3 km/h 96 % 12.7 mm
00:47 -11 °C -11.3 °C 34212.1 hPa WSW 5.1 km/h 10.3 km/h 96 % 12.7 mm
00:52 -11 °C -11.3 °C 34212.1 hPa Calm   10.3 km/h 96 % 12.7 mm
00:57 -11 °C -11.3 °C 34198.6 hPa Calm   10.3 km/h 96 % 12.7 mm
01:02 -11 °C -11.3 °C 34212.1 hPa Calm   10.3 km/h 96 % 12.7 mm
01:07 -11 °C -11.3 °C 34198.6 hPa SW 5.1 km/h 10.3 km/h 96 % 20.32 mm
01:12 -11.1 °C -11.4 °C 34198.6 hPa SSW 2.6 km/h 10.3 km/h 96 % 20.32 mm
01:17 -11.1 °C -11.4 °C 34198.6 hPa Calm   10.3 km/h 96 % 20.32 mm
01:22 -11.1 °C -11.4 °C 34198.6 hPa SW 5.1 km/h 10.3 km/h 96 % 20.32 mm
01:32 -11.1 °C -11.4 °C 34198.6 hPa Calm   7.7 km/h 96 % 12.7 mm
01:37 -11.1 °C -11.4 °C 34198.6 hPa West 2.6 km/h 7.7 km/h 96 % 20.32 mm
01:42 -11.1 °C -11.4 °C 34198.6 hPa Calm   7.7 km/h 96 % 12.7 mm
01:47 -11.1 °C -11.4 °C 34198.6 hPa SW 2.6 km/h 7.7 km/h 96 % 20.32 mm
01:52 -11.1 °C -11.4 °C 34198.6 hPa Calm   12.9 km/h 96 % 25.4 mm
01:57 -11.1 °C -11.4 °C 34188.4 hPa Calm   12.9 km/h 96 % 25.4 mm
02:02 -11.1 °C -11.4 °C 34188.4 hPa SW 2.6 km/h 12.9 km/h 96 % 33.02 mm
02:07 -11.1 °C -11.4 °C 34188.4 hPa WSW 2.6 km/h 10.3 km/h 96 % 33.02 mm
02:12 -11.1 °C -11.4 °C 34188.4 hPa SW 2.6 km/h 7.7 km/h 96 % 33.02 mm
02:17 -11.1 °C -11.4 °C 34188.4 hPa Calm   7.7 km/h 96 % 33.02 mm
02:22 -11.1 °C -11.4 °C 34188.4 hPa Calm   10.3 km/h 96 % 38.1 mm
02:32 -11.1 °C -11.4 °C 34188.4 hPa SW 5.1 km/h 10.3 km/h 96 % 38.1 mm
02:37 -11.1 °C -11.4 °C 34178.3 hPa West 2.6 km/h 10.3 km/h 96 % 33.02 mm
02:42 -11.1 °C -11.4 °C 34178.3 hPa WSW 2.6 km/h 10.3 km/h 96 % 38.1 mm
02:47 -11.1 °C -11.4 °C 34178.3 hPa SW 2.6 km/h 10.3 km/h 96 % 33.02 mm
02:57 -11.1 °C -11.4 °C 34178.3 hPa WSW 5.1 km/h 12.9 km/h 96 % 20.32 mm
03:02 -11.1 °C -11.4 °C 34178.3 hPa Calm   12.9 km/h 96 % 20.32 mm
03:07 -11.1 °C -11.4 °C 34178.3 hPa Calm   12.9 km/h 96 % 20.32 mm
03:12 -11.2 °C -11.5 °C 34178.3 hPa SW 5.1 km/h 12.9 km/h 96 % 20.32 mm
03:17 -11.2 °C -11.5 °C 34178.3 hPa Calm   10.3 km/h 96 % 20.32 mm
03:22 -11.1 °C -11.4 °C 34178.3 hPa SSW 7.7 km/h 10.3 km/h 96 % 20.32 mm
03:32 -11.2 °C -11.5 °C 34178.3 hPa West 2.6 km/h 10.3 km/h 96 % 25.4 mm
03:37 -11.2 °C -11.5 °C 34178.3 hPa SW 2.6 km/h 10.3 km/h 96 % 33.02 mm
03:42 -11.2 °C -11.5 °C 34164.7 hPa SW 2.6 km/h 10.3 km/h 96 % 25.4 mm
03:47 -11.2 °C -11.5 °C 34164.7 hPa Calm   10.3 km/h 96 % 33.02 mm
03:52 -11.1 °C -11.4 °C 34164.7 hPa SW 2.6 km/h 10.3 km/h 96 % 38.1 mm
03:57 -11.1 °C -11.4 °C 34164.7 hPa Calm   7.7 km/h 96 % 38.1 mm
04:02 -11.2 °C -11.5 °C 34164.7 hPa WSW 2.6 km/h 7.7 km/h 96 % 38.1 mm
04:12 -11.2 °C -11.5 °C 34164.7 hPa SW 2.6 km/h 10.3 km/h 96 % 38.1 mm
04:17 -11.2 °C -11.4 °C 34164.7 hPa SW 2.6 km/h 10.3 km/h 97 % 38.1 mm
04:22 -11.2 °C -11.4 °C 34164.7 hPa SE 2.6 km/h 10.3 km/h 97 % 38.1 mm
04:32 -11.1 °C -11.4 °C 34164.7 hPa Calm   10.3 km/h 97 % 38.1 mm
04:37 -11.1 °C -11.4 °C 34164.7 hPa SW 5.1 km/h 7.7 km/h 97 % 38.1 mm
04:42 -11.1 °C -11.4 °C 34164.7 hPa Calm   7.7 km/h 97 % 45.72 mm
04:47 -11.1 °C -11.4 °C 34164.7 hPa Calm   7.7 km/h 97 % 45.72 mm
04:52 -11.2 °C -11.4 °C 34164.7 hPa SW 2.6 km/h 7.7 km/h 97 % 45.72 mm
05:02 -11.2 °C -11.4 °C 34164.7 hPa Calm   5.1 km/h 97 % 45.72 mm
05:12 -11.1 °C -11.4 °C 34164.7 hPa Calm   5.1 km/h 97 % 45.72 mm
05:17 -11.1 °C -11.4 °C 34164.7 hPa Calm   7.7 km/h 97 % 45.72 mm
05:22 -11.1 °C -11.4 °C 34164.7 hPa Calm   7.7 km/h 97 % 45.72 mm
05:32 -11.1 °C -11.4 °C 34164.7 hPa Calm   5.1 km/h 97 % 45.72 mm
05:42 -11.1 °C -11.4 °C 34164.7 hPa Calm   5.1 km/h 97 % 50.8 mm
05:52 -11.1 °C -11.4 °C 34154.6 hPa Calm   5.1 km/h 97 % 38.1 mm
06:02 -11.2 °C -11.4 °C 34154.6 hPa Calm   5.1 km/h 97 % 38.1 mm
06:12 -11.2 °C -11.5 °C 34154.6 hPa Calm   7.7 km/h 96 % 25.4 mm
06:17 -11.2 °C -11.6 °C 34154.6 hPa Calm   10.3 km/h 96 % 25.4 mm
06:22 -11.2 °C -11.6 °C 34154.6 hPa SW 2.6 km/h 10.3 km/h 96 % 25.4 mm
06:32 -11.2 °C -11.6 °C 34164.7 hPa Calm   7.7 km/h 96 % 25.4 mm
06:42 -11.2 °C -11.6 °C 34164.7 hPa Calm   5.1 km/h 96 % 25.4 mm
06:52 -11.2 °C -11.6 °C 34164.7 hPa Calm   5.1 km/h 96 % 38.1 mm
07:02 -11.2 °C -11.6 °C 34164.7 hPa WSW 2.6 km/h 7.7 km/h 96 % 45.72 mm
07:12 -11.2 °C -11.6 °C 34164.7 hPa Calm   7.7 km/h 96 % 50.8 mm
07:17 -11.2 °C -11.6 °C 34154.6 hPa South 5.1 km/h 7.7 km/h 96 % 63.5 mm
07:22 -11.2 °C -11.6 °C 34154.6 hPa Calm   7.7 km/h 96 % 63.5 mm
07:32 -11.2 °C -11.6 °C 34164.7 hPa Calm   15.6 km/h 96 % 63.5 mm
07:42 -11.2 °C -11.6 °C 34164.7 hPa Calm   2.6 km/h 96 % 76.2 mm
07:47 -11.2 °C -11.6 °C 34164.7 hPa Calm   2.6 km/h 96 % 83.82 mm
07:52 -11.2 °C -11.6 °C 34164.7 hPa Calm   2.6 km/h 96 % 83.82 mm
08:02 -11.2 °C -11.6 °C 34164.7 hPa SW 5.1 km/h 7.7 km/h 96 % 83.82 mm
08:17 -11.2 °C -11.5 °C 34164.7 hPa Calm   7.7 km/h 96 % 83.82 mm
08:22 -11.2 °C -11.5 °C 34164.7 hPa Calm   7.7 km/h 96 % 83.82 mm
08:32 -11.2 °C -11.5 °C 34164.7 hPa Calm   5.1 km/h 96 % 83.82 mm
08:42 -11.2 °C -11.5 °C 34164.7 hPa Calm   7.7 km/h 96 % 76.2 mm
08:52 -11.2 °C -11.5 °C 34164.7 hPa Calm   5.1 km/h 96 % 71.12 mm
08:57 -11.2 °C -11.5 °C 34164.7 hPa Calm   7.7 km/h 96 % 71.12 mm
09:02 -11.1 °C -11.4 °C 34178.3 hPa Calm   7.7 km/h 96 % 71.12 mm
09:07 -11.1 °C -11.4 °C 34178.3 hPa Calm   2.6 km/h 96 % 63.5 mm
09:12 -11.1 °C -11.4 °C 34178.3 hPa Calm   2.6 km/h 96 % 63.5 mm
09:17 -11.1 °C -11.4 °C 34178.3 hPa Calm   7.7 km/h 96 % 63.5 mm
09:22 -11 °C -11.3 °C 34178.3 hPa Calm   7.7 km/h 96 % 63.5 mm
09:32 -11 °C -11.3 °C 34178.3 hPa Calm   5.1 km/h 96 % 58.42 mm
09:42 -11 °C -11.4 °C 34178.3 hPa Calm   7.7 km/h 95 % 58.42 mm
09:47 -11 °C -11.3 °C 34178.3 hPa Calm   10.3 km/h 96 % 58.42 mm
09:52 -10.9 °C -11.3 °C 34178.3 hPa Calm   10.3 km/h 96 % 58.42 mm
09:57 -10.9 °C -11.3 °C 34178.3 hPa SW 2.6 km/h 7.7 km/h 96 % 58.42 mm
10:07 -10.9 °C -11.3 °C 34178.3 hPa Calm   7.7 km/h 96 % 50.8 mm
10:12 -10.9 °C -11.3 °C 34178.3 hPa WSW 2.6 km/h 7.7 km/h 95 % 50.8 mm
10:17 -10.9 °C -11.2 °C 34178.3 hPa Calm   7.7 km/h 96 % 50.8 mm
10:22 -10.9 °C -11.3 °C 34178.3 hPa Calm   7.7 km/h 95 % 45.72 mm
10:27 -10.9 °C -11.3 °C 34178.3 hPa Calm   10.3 km/h 95 % 45.72 mm
10:32 -10.8 °C -11.3 °C 34178.3 hPa Calm   10.3 km/h 95 % 38.1 mm
10:37 -10.8 °C -11.3 °C 34178.3 hPa Calm   12.9 km/h 95 % 38.1 mm
10:42 -10.8 °C -11.2 °C 34178.3 hPa ESE 2.6 km/h 7.7 km/h 95 % 38.1 mm
10:47 -10.9 °C -11.4 °C 34178.3 hPa Calm   15.6 km/h 94 % 33.02 mm
10:52 -10.8 °C -11.3 °C 34178.3 hPa Calm   15.6 km/h 95 % 33.02 mm
10:57 -10.8 °C -11.2 °C 34178.3 hPa Calm   15.6 km/h 95 % 33.02 mm
11:02 -10.8 °C -11.2 °C 34178.3 hPa Calm   15.6 km/h 95 % 25.4 mm
11:07 -10.7 °C -11.2 °C 34178.3 hPa Calm   5.1 km/h 95 % 25.4 mm
11:12 -10.7 °C -11.1 °C 34178.3 hPa Calm   5.1 km/h 95 % 25.4 mm
11:17 -10.6 °C -11.1 °C 34178.3 hPa Calm   5.1 km/h 95 % 20.32 mm
11:22 -10.6 °C -11 °C 34178.3 hPa Calm   5.1 km/h 95 % 20.32 mm
11:27 -10.5 °C -10.9 °C 34188.4 hPa SE 2.6 km/h 5.1 km/h 95 % 20.32 mm
11:32 -10.6 °C -11.1 °C 34188.4 hPa Calm   5.1 km/h 94 % 20.32 mm
11:37 -10.5 °C -11 °C 34188.4 hPa SSW 2.6 km/h 5.1 km/h 94 % 20.32 mm
11:42 -10.4 °C -10.8 °C 34188.4 hPa Calm   5.1 km/h 95 % 12.7 mm
11:47 -10.3 °C -10.8 °C 34188.4 hPa Calm   7.7 km/h 94 % 12.7 mm
11:52 -10.3 °C -10.9 °C 34188.4 hPa Calm   7.7 km/h 93 % 12.7 mm
11:57 -10.3 °C -10.8 °C 34188.4 hPa Calm   7.7 km/h 94 % 12.7 mm
12:02 -10.4 °C -11 °C 34188.4 hPa Calm   7.7 km/h 93 % 12.7 mm
12:07 -10.4 °C -11.1 °C 34188.4 hPa Calm   7.7 km/h 93 % 12.7 mm
12:12 -10.4 °C -11.1 °C 34198.6 hPa Calm   7.7 km/h 93 % 12.7 mm
12:17 -10.5 °C -11.1 °C 34198.6 hPa Calm   7.7 km/h 93 % 12.7 mm
12:22 -10.4 °C -10.9 °C 34198.6 hPa Calm   7.7 km/h 94 % 12.7 mm
12:27 -10.4 °C -11.1 °C 34198.6 hPa Calm   7.7 km/h 93 % 12.7 mm
12:32 -10.5 °C -11 °C 34198.6 hPa Calm   15.6 km/h 94 % 7.62 mm
12:42 -10.4 °C -10.9 °C 34198.6 hPa Calm   15.6 km/h 94 % 7.62 mm
12:47 -10.4 °C -11 °C 34198.6 hPa SW 2.6 km/h 7.7 km/h 93 % 12.7 mm
12:52 -10.4 °C -10.9 °C 34198.6 hPa South 5.1 km/h 7.7 km/h 94 % 12.7 mm
12:57 -10.4 °C -10.9 °C 34198.6 hPa East 7.7 km/h 7.7 km/h 94 % 12.7 mm
13:02 -10.4 °C -11.1 °C 34198.6 hPa SW 5.1 km/h 7.7 km/h 93 % 12.7 mm
13:07 -10.4 °C -11.1 °C 34198.6 hPa Calm   10.3 km/h 93 % 12.7 mm
13:12 -10.5 °C -11.1 °C 34198.6 hPa Calm   10.3 km/h 93 % 7.62 mm
13:17 -10.5 °C -11.1 °C 34198.6 hPa Calm   10.3 km/h 93 % 7.62 mm
13:22 -10.5 °C -11.1 °C 34198.6 hPa Calm   7.7 km/h 93 % 7.62 mm
13:32 -10.6 °C -11.2 °C 34198.6 hPa Calm   12.9 km/h 93 % 12.7 mm
13:37 -10.6 °C -11.2 °C 34198.6 hPa Calm   12.9 km/h 93 % 12.7 mm
13:42 -10.5 °C -11 °C 34212.1 hPa Calm   12.9 km/h 94 % 7.62 mm
13:47 -10.4 °C -10.9 °C 34198.6 hPa Calm   10.3 km/h 94 % 12.7 mm
13:52 -10.4 °C -10.9 °C 34212.1 hPa Calm   10.3 km/h 94 % 12.7 mm
13:57 -10.4 °C -10.9 °C 34212.1 hPa Calm   5.1 km/h 94 % 12.7 mm
14:02 -10.4 °C -10.9 °C 34212.1 hPa Calm   5.1 km/h 94 % 20.32 mm
14:07 -10.4 °C -10.8 °C 34212.1 hPa Calm   5.1 km/h 95 % 20.32 mm
14:12 -10.4 °C -10.9 °C 34212.1 hPa Calm   5.1 km/h 94 % 20.32 mm
14:17 -10.4 °C -10.9 °C 34212.1 hPa Calm   10.3 km/h 94 % 25.4 mm
14:22 -10.4 °C -10.9 °C 34212.1 hPa Calm   10.3 km/h 94 % 20.32 mm
14:27 -10.4 °C -10.9 °C 34212.1 hPa Calm   10.3 km/h 94 % 25.4 mm
14:32 -10.4 °C -10.9 °C 34212.1 hPa Calm   10.3 km/h 94 % 33.02 mm
14:37 -10.4 °C -10.9 °C 34212.1 hPa Calm   7.7 km/h 94 % 33.02 mm
14:42 -10.4 °C -10.9 °C 34212.1 hPa Calm   7.7 km/h 94 % 38.1 mm
14:47 -10.4 °C -10.9 °C 34212.1 hPa Calm   7.7 km/h 94 % 38.1 mm
14:57 -10.5 °C -11 °C 34212.1 hPa West 2.6 km/h 7.7 km/h 94 % 50.8 mm
15:02 -10.5 °C -11 °C 34222.3 hPa SSW 2.6 km/h 7.7 km/h 94 % 50.8 mm
15:07 -10.6 °C -11.1 °C 34222.3 hPa SSE 2.6 km/h 7.7 km/h 94 % 58.42 mm
15:12 -10.6 °C -11.1 °C 34222.3 hPa Calm   7.7 km/h 94 % 63.5 mm
15:17 -10.5 °C -10.9 °C 34222.3 hPa Calm   5.1 km/h 95 % 58.42 mm
15:22 -10.4 °C -10.9 °C 34222.3 hPa Calm   5.1 km/h 95 % 58.42 mm
15:27 -10.4 °C -10.9 °C 34222.3 hPa Calm   5.1 km/h 95 % 63.5 mm
15:32 -10.4 °C -10.9 °C 34222.3 hPa SW 2.6 km/h 5.1 km/h 94 % 58.42 mm
15:37 -10.4 °C -10.9 °C 34222.3 hPa Calm   5.1 km/h 95 % 58.42 mm
15:42 -10.4 °C -10.9 °C 34222.3 hPa SW 2.6 km/h 5.1 km/h 95 % 50.8 mm
15:47 -10.4 °C -10.9 °C 34222.3 hPa Calm   5.1 km/h 94 % 45.72 mm
15:52 -10.4 °C -10.9 °C 34222.3 hPa Calm   5.1 km/h 94 % 38.1 mm
15:57 -10.4 °C -10.9 °C 34222.3 hPa Calm   7.7 km/h 95 % 38.1 mm
16:02 -10.4 °C -10.9 °C 34235.8 hPa Calm   7.7 km/h 95 % 38.1 mm
16:12 -10.4 °C -10.9 °C 34235.8 hPa Calm   7.7 km/h 95 % 38.1 mm
16:17 -10.5 °C -11 °C 34235.8 hPa East 2.6 km/h 10.3 km/h 94 % 38.1 mm
16:22 -10.6 °C -11.1 °C 34235.8 hPa Calm   10.3 km/h 94 % 38.1 mm
16:27 -10.6 °C -11 °C 34235.8 hPa Calm   10.3 km/h 95 % 45.72 mm
16:32 -10.6 °C -11.1 °C 34235.8 hPa Calm   10.3 km/h 95 % 50.8 mm
16:37 -10.6 °C -11 °C 34235.8 hPa Calm   10.3 km/h 95 % 58.42 mm
16:42 -10.5 °C -10.9 °C 34235.8 hPa SE 7.7 km/h 10.3 km/h 95 % 58.42 mm
16:47 -10.6 °C -11 °C 34235.8 hPa Calm   7.7 km/h 95 % 58.42 mm
16:52 -10.6 °C -11 °C 34235.8 hPa Calm   7.7 km/h 95 % 58.42 mm
16:57 -10.6 °C -11 °C 34235.8 hPa Calm   7.7 km/h 95 % 50.8 mm
17:02 -10.6 °C -11.1 °C 34235.8 hPa Calm   7.7 km/h 95 % 50.8 mm
17:07 -10.6 °C -11.1 °C 34235.8 hPa Calm   10.3 km/h 95 % 38.1 mm
17:12 -10.6 °C -11.1 °C 34235.8 hPa Calm   10.3 km/h 95 % 38.1 mm
17:17 -10.6 °C -11.1 °C 34235.8 hPa East 2.6 km/h 5.1 km/h 95 % 38.1 mm
17:22 -10.6 °C -11 °C 34235.8 hPa SW 7.7 km/h 7.7 km/h 95 % 38.1 mm
17:32 -10.6 °C -11 °C 34235.8 hPa Calm   7.7 km/h 95 % 20.32 mm
17:37 -10.6 °C -11 °C 34235.8 hPa South 2.6 km/h 7.7 km/h 95 % 38.1 mm
17:42 -10.6 °C -11.1 °C 34235.8 hPa Calm   7.7 km/h 95 % 45.72 mm
17:57 -10.7 °C -11.1 °C 34235.8 hPa Calm   7.7 km/h 95 % 50.8 mm
18:02 -10.6 °C -11.1 °C 34235.8 hPa Calm   7.7 km/h 95 % 45.72 mm
18:12 -10.6 °C -11.1 °C 34235.8 hPa Calm   2.6 km/h 95 % 58.42 mm
18:17 -10.6 °C -11.1 °C 34235.8 hPa Calm   5.1 km/h 95 % 58.42 mm
18:22 -10.6 °C -11.1 °C 34235.8 hPa Calm   5.1 km/h 95 % 50.8 mm
18:27 -10.6 °C -11 °C 34235.8 hPa Calm   5.1 km/h 95 % 50.8 mm
18:32 -10.6 °C -11 °C 34235.8 hPa Calm   5.1 km/h 95 % 58.42 mm
18:37 -10.5 °C -10.9 °C 34235.8 hPa Calm   5.1 km/h 95 % 58.42 mm
18:42 -10.5 °C -10.9 °C 34246 hPa Calm   5.1 km/h 95 % 38.1 mm
18:47 -10.4 °C -10.9 °C 34246 hPa Calm   5.1 km/h 95 % 38.1 mm
18:52 -10.4 °C -10.9 °C 34246 hPa Calm   5.1 km/h 95 % 38.1 mm
18:57 -10.5 °C -10.9 °C 34246 hPa SW 2.6 km/h 5.1 km/h 95 % 38.1 mm
19:02 -10.6 °C -11 °C 34246 hPa Calm   5.1 km/h 95 % 33.02 mm
19:07 -10.6 °C -11.1 °C 34246 hPa Calm   5.1 km/h 95 % 25.4 mm
19:12 -10.6 °C -11 °C 34246 hPa Calm   5.1 km/h 95 % 25.4 mm
19:17 -10.5 °C -10.9 °C 34246 hPa Calm   5.1 km/h 95 % 25.4 mm
19:22 -10.6 °C -11 °C 34246 hPa Calm   5.1 km/h 95 % 20.32 mm
19:32 -10.7 °C -11.1 °C 34256.2 hPa ESE 2.6 km/h 2.6 km/h 95 % 12.7 mm
19:37 -10.7 °C -11.1 °C 34256.2 hPa Calm   5.1 km/h 95 % 7.62 mm
19:42 -10.7 °C -11.2 °C 34256.2 hPa Calm   5.1 km/h 95 % 7.62 mm
19:47 -10.7 °C -11.2 °C 34256.2 hPa Calm   2.6 km/h 95 % 7.62 mm
19:57 -10.8 °C -11.2 °C 34256.2 hPa SE 2.6 km/h 5.1 km/h 95 % 12.7 mm
20:02 -10.8 °C -11.3 °C 34256.2 hPa Calm   5.1 km/h 95 % 12.7 mm
20:12 -10.9 °C -11.3 °C 34269.7 hPa Calm   7.7 km/h 95 % 12.7 mm
20:17 -10.9 °C -11.3 °C 34269.7 hPa Calm   5.1 km/h 95 % 12.7 mm
20:22 -10.9 °C -11.2 °C 34269.7 hPa Calm   5.1 km/h 96 % 20.32 mm
20:27 -10.9 °C -11.2 °C 34269.7 hPa Calm   5.1 km/h 96 % 20.32 mm
20:32 -10.9 °C -11.2 °C 34269.7 hPa Calm   5.1 km/h 96 % 20.32 mm
20:37 -10.9 °C -11.3 °C 34269.7 hPa Calm   5.1 km/h 96 % 12.7 mm
20:42 -10.9 °C -11.3 °C 34269.7 hPa Calm   5.1 km/h 96 % 12.7 mm
20:47 -10.9 °C -11.3 °C 34269.7 hPa Calm     96 % 20.32 mm
20:52 -10.9 °C -11.3 °C 34269.7 hPa Calm     96 % 12.7 mm
21:02 -10.9 °C -11.3 °C 34269.7 hPa Calm     96 % 12.7 mm
21:07 -11 °C -11.3 °C 34279.9 hPa Calm   2.6 km/h 96 % 12.7 mm
21:12 -11 °C -11.3 °C 34279.9 hPa Calm   2.6 km/h 96 % 12.7 mm
21:17 -11 °C -11.3 °C 34279.9 hPa Calm   2.6 km/h 96 % 20.32 mm
21:22 -11 °C -11.3 °C 34279.9 hPa Calm   2.6 km/h 96 % 12.7 mm
21:32 -11 °C -11.3 °C 34279.9 hPa Calm   2.6 km/h 96 % 12.7 mm
21:37 -11 °C -11.3 °C 34279.9 hPa Calm   2.6 km/h 96 % 12.7 mm
21:42 -11.1 °C -11.4 °C 34279.9 hPa Calm   2.6 km/h 96 % 12.7 mm
21:47 -11 °C -11.3 °C 34279.9 hPa Calm   5.1 km/h 96 % 12.7 mm
21:52 -11.1 °C -11.4 °C 34279.9 hPa Calm   5.1 km/h 96 % 20.32 mm
21:57 -11.1 °C -11.4 °C 34293.4 hPa Calm   2.6 km/h 96 % 33.02 mm
22:02 -11.1 °C -11.4 °C 34293.4 hPa WSW 2.6 km/h 2.6 km/h 96 % 25.4 mm
22:17 -11.1 °C -11.3 °C 34293.4 hPa Calm   2.6 km/h 97 % 25.4 mm
22:22 -11.1 °C -11.3 °C 34293.4 hPa Calm   2.6 km/h 97 % 25.4 mm
22:27 -11.1 °C -11.4 °C 34293.4 hPa Calm   2.6 km/h 97 % 33.02 mm
22:32 -11.1 °C -11.4 °C 34293.4 hPa Calm   2.6 km/h 97 % 33.02 mm
22:37 -11.1 °C -11.3 °C 34293.4 hPa Calm   5.1 km/h 97 % 33.02 mm
22:42 -11.1 °C -11.3 °C 34303.6 hPa Calm   2.6 km/h 97 % 33.02 mm
22:47 -11.1 °C -11.3 °C 34303.6 hPa Calm   2.6 km/h 97 % 25.4 mm
22:52 -11.1 °C -11.3 °C 34303.6 hPa Calm   2.6 km/h 97 % 12.7 mm
22:57 -11.1 °C -11.3 °C 34303.6 hPa Calm   2.6 km/h 97 % 12.7 mm
23:02 -11.1 °C -11.3 °C 34303.6 hPa Calm   2.6 km/h 97 % 12.7 mm
23:07 -11.1 °C -11.3 °C 34303.6 hPa Calm   2.6 km/h 97 % 12.7 mm
23:12 -11.1 °C -11.3 °C 34303.6 hPa Calm   2.6 km/h 97 % 7.62 mm
23:17 -11.1 °C -11.3 °C 34303.6 hPa Calm   2.6 km/h 97 % 7.62 mm
23:22 -11.1 °C -11.3 °C 34303.6 hPa Calm   2.6 km/h 97 % 7.62 mm
23:27 -11.1 °C -11.3 °C 34303.6 hPa Calm   2.6 km/h 97 % 0 mm
23:32 -11.1 °C -11.3 °C 34303.6 hPa Calm   2.6 km/h 97 % 0 mm
23:37 -11.1 °C -11.3 °C 34313.7 hPa Calm   2.6 km/h 97 % 0 mm
23:42 -11.1 °C -11.3 °C 34313.7 hPa Calm   2.6 km/h 97 % 0 mm
23:47 -11.1 °C -11.3 °C 34313.7 hPa Calm   2.6 km/h 97 % 0 mm
23:52 -11.1 °C -11.3 °C 34303.6 hPa Calm   2.6 km/h 97 % 0 mm
23:57 -11.1 °C -11.3 °C 34313.7 hPa Calm     97 % 0 mm
Meteo18
Compliments of Weather Underground - 4 mb

Script developed by  Jim McMurry - jmcmurry@mwt.net Adapted for the template by  Wim van der Kuil - Leuven-Template.eu

You find our weather info also at:

European Weather Network

Weather Underground

Equipment we use:

Weather-station
Davis Vue

Weather-program
Meteobridge

Weather-server
Raspberry PI 2 B+

Provider
1 and 1

Davis Vue

Meteobridge

Raspberry PI 2 B+

1 and 1